Back to catalog

BLOCK DM-SL R/B

AliveGTO
NORAD 26725·ROCKET BODY· XX

Launched Mar 18, 2001 from Sea Launch Platform

Loading…

TLE

FreshSource: Space-Track

Epoch: Sep 14, 2026, 22:30 UTC

1 26725U 01012B   26257.93777414 -.00000147  00000-0  32370-2 0  9990
2 26725   1.3093 335.4144 7051547 197.5705 219.7824  2.23581182208349

Track BLOCK DM-SL R/B in real time with AllMySat

Download on the App Store